Weather History for KHRT - April, 2013

Change the Weather History Date:

Friday, April 12, 2013

  Actual Average Record
Temperature  
Mean Temperature 66 °F -  
Max Temperature 76 °F 72 °F 86 °F (1999)
Min Temperature 56 °F 55 °F 46 °F (1998)
Cooling Degree Days 2    
Growing Degree Days 16 (Base 50)    
Moisture  
Dew Point 55 °F    
Average Humidity 76    
Maximum Humidity 100    
Minimum Humidity 34    
Precipitation  
Precipitation 0.00 in - - ()
Sea Level Pressure  
Sea Level Pressure 29.84 in    
Wind  
Wind Speed 10 mph (NNW)    
Max Wind Speed 18 mph    
Max Gust Speed 20 mph    
Visibility 10 miles    
Events      
Averages and records for this station are not official NWS values.
T = Trace of Precipitation, MM = Missing Value Source: NWS Daily Summary

Daily Weather History Graph

Daily Weather History Graph

Search for Another Location

Airport or City:

Trip Planner

Search our weather history database for the weather conditions in past years. The results will help you decide how hot, cold, wet, or windy it might be!

Date:

Astronomy

Apr. 12, 2013 Rise Set
Actual Time 6:22 AM CDT 7:12 PM CDT
Civil Twilight 5:58 AM CDT 7:37 PM CDT
Nautical Twilight 5:29 AM CDT 8:06 PM CDT
Astronomical Twilight 4:59 AM CDT 8:35 PM CDT
Moon 7:41 AM CDT (4/12) 9:32 PM CDT (4/12)
Length of Visible Light 13h 39m
Length of Day
12h 50m
Waxing Crescent, 5% of the Moon is Illuminated
Apr 12
Waxing Crescent
Apr 18
First Quarter
Apr 25
Full
May 2
Last Quarter
May 9
New

Hourly Weather History & Observations

Time (CDT) Temp. Dew Point Humidity Pressure Visibility Wind Dir Wind Speed Gust Speed Precip Events Conditions
12:58 AM 68.0 °F 68.0 °F 100% 29.75 in 10.0 mi WNW 4.6 mph - N/A   Mostly Cloudy
1:38 AM 66.2 °F 66.2 °F 100% 29.74 in 10.0 mi NNW 10.4 mph - N/A   Mostly Cloudy
1:58 AM 64.8 °F 64.8 °F 100% 29.76 in 10.0 mi NW 11.5 mph - N/A   Overcast
2:28 AM 62.6 °F 62.6 °F 100% 29.75 in 10.0 mi NW 9.2 mph - N/A   Overcast
2:33 AM 62.6 °F 62.6 °F 100% 29.75 in 10.0 mi NW 8.1 mph - N/A   Overcast
2:58 AM 63.0 °F 63.0 °F 100% 29.75 in 10.0 mi NNW 12.7 mph - N/A   Overcast
3:13 AM 62.6 °F 62.6 °F 100% 29.75 in 10.0 mi NNW 12.7 mph - N/A   Overcast
3:23 AM 62.6 °F 62.6 °F 100% 29.75 in 10.0 mi NW 11.5 mph - N/A   Overcast
3:58 AM 61.7 °F 61.7 °F 100% 29.76 in 10.0 mi NNW 8.1 mph - N/A   Overcast
4:48 AM 60.8 °F 60.8 °F 100% 29.77 in 10.0 mi NW 12.7 mph - N/A   Overcast
4:58 AM 60.3 °F 60.3 °F 100% 29.78 in 10.0 mi NW 10.4 mph 18.4 mph N/A   Overcast
5:13 AM 59.0 °F 59.0 °F 100% 29.78 in 10.0 mi NW 9.2 mph - N/A   Overcast
5:28 AM 59.0 °F 59.0 °F 100% 29.79 in 10.0 mi NNW 10.4 mph - N/A   Overcast
5:48 AM 59.0 °F 59.0 °F 100% 29.80 in 10.0 mi NNW 11.5 mph - N/A   Overcast
5:57 AM 59.0 °F 59.0 °F 100% 29.81 in 10.0 mi North 15.0 mph - N/A   Overcast
6:33 AM 59.0 °F 59.0 °F 100% 29.82 in 10.0 mi NNW 12.7 mph - N/A   Overcast
6:43 AM 59.0 °F 59.0 °F 100% 29.83 in 10.0 mi NNW 12.7 mph - N/A   Overcast
6:58 AM 58.6 °F 58.6 °F 100% 29.84 in 10.0 mi North 18.4 mph - N/A   Overcast
7:56 AM 57.2 °F 57.2 °F 100% 29.86 in 10.0 mi NNW 13.8 mph - N/A   Overcast
8:48 AM 59.0 °F 57.2 °F 94% 29.88 in 10.0 mi North 17.3 mph - N/A   Scattered Clouds
8:58 AM 59.0 °F 57.6 °F 95% 29.89 in 10.0 mi North 12.7 mph - N/A   Partly Cloudy
9:58 AM 63.5 °F 55.0 °F 74% 29.90 in 10.0 mi North 15.0 mph - N/A   Clear
10:58 AM 66.4 °F 53.6 °F 63% 29.90 in 10.0 mi NNW 13.8 mph - N/A   Clear
11:58 AM 70.2 °F 51.1 °F 51% 29.91 in 10.0 mi North 9.2 mph - N/A   Clear
12:58 PM 72.9 °F 48.6 °F 42% 29.90 in 10.0 mi NNW 12.7 mph - N/A   Clear
1:30 PM 75.2 °F 50.0 °F 41% 29.89 in 10.0 mi NNE 8.1 mph - N/A   Light Drizzle
1:31 PM 75.2 °F 50.0 °F 41% 29.89 in 10.0 mi NNE 9.2 mph - N/A   Clear
1:58 PM 75.4 °F 48.9 °F 39% 29.90 in 10.0 mi North 12.7 mph 19.6 mph 0.00 in   Clear
2:58 PM 74.7 °F 47.3 °F 38% 29.89 in 10.0 mi North 11.5 mph - N/A   Clear
3:58 PM 75.9 °F 47.3 °F 36% 29.88 in 10.0 mi NNE 9.2 mph - N/A   Clear
4:17 PM 77.0 °F 46.4 °F 34% 29.87 in 10.0 mi NNW 5.8 mph - N/A   Light Drizzle
4:26 PM 75.2 °F 44.6 °F 34% 29.87 in 10.0 mi Variable 5.8 mph - N/A   Clear
4:58 PM 75.7 °F 46.2 °F 35% 29.88 in 10.0 mi NNW 8.1 mph - 0.00 in   Clear
5:58 PM 74.1 °F 46.9 °F 38% 29.86 in 10.0 mi North 12.7 mph - N/A   Clear
6:58 PM 70.2 °F 45.9 °F 42% 29.89 in 10.0 mi North 6.9 mph - N/A   Clear
7:58 PM 63.1 °F 47.5 °F 57% 29.90 in 10.0 mi North 6.9 mph - N/A   Clear
8:58 PM 65.1 °F 45.3 °F 49% 29.94 in 10.0 mi North 2.3 mph - N/A   Clear
9:58 PM 57.9 °F 49.8 °F 74% 29.96 in 10.0 mi North 3.5 mph - N/A   Clear
10:58 PM 56.3 °F 49.6 °F 78% 29.97 in 10.0 mi North 5.8 mph - N/A   Clear
11:58 PM 56.1 °F 47.5 °F 73% 29.97 in 10.0 mi North 5.8 mph - N/A   Clear